OCN1AK EDDM-LGKL

Flight info

Callsign OCN1AK
Flight time 2h 1m
Altitude 33000
Route VAVOR M867 RADIZ DCT ARNOS/N0442F370 DCT RILIM DCT NOSTO UL612 TRL Y115 IPTAG
Aircraft A320/M-SDE2E3FGIJ1LORWXYZ/HB1

Departure

Time 2026-05-04 04:26
Airport Munich Airport (EDDM)

Arrival

Time 2026-05-04 06:27
Airport Kalamata Airport (LGKL)
Time Latitude Longitude Altitude Speed Heading
2026-05-04 03:56 48.35319 11.79760 1478 ft 0 kts 83°
2026-05-04 04:20 48.35318 11.79741 1473 ft 4 kts 83°
2026-05-04 04:20 48.35315 11.79701 1474 ft 4 kts 83°
2026-05-04 04:20 48.35312 11.79668 1473 ft 4 kts 89°
2026-05-04 04:21 48.35317 11.79631 1480 ft 4 kts 128°
2026-05-04 04:21 48.35337 11.79610 1475 ft 3 kts 172°
2026-05-04 04:21 48.35357 11.79607 1474 ft 0 kts 173°
2026-05-04 04:23 48.35331 11.79611 1473 ft 10 kts 173°
2026-05-04 04:23 48.35225 11.79630 1485 ft 19 kts 173°
2026-05-04 04:23 48.35086 11.79653 1474 ft 21 kts 174°
2026-05-04 04:24 48.34940 11.79679 1485 ft 22 kts 172°
2026-05-04 04:24 48.34786 11.79708 1479 ft 22 kts 173°
2026-05-04 04:24 48.34663 11.79624 1480 ft 21 kts 235°
2026-05-04 04:24 48.34575 11.79443 1477 ft 22 kts 233°
2026-05-04 04:25 48.34483 11.79256 1473 ft 23 kts 233°
2026-05-04 04:25 48.34383 11.79070 1476 ft 23 kts 244°
2026-05-04 04:25 48.34354 11.78830 1485 ft 25 kts 263°
2026-05-04 04:25 48.34322 11.78397 1479 ft 72 kts 263°
2026-05-04 04:26 48.34238 11.77317 1485 ft 133 kts 263°
2026-05-04 04:26 48.34114 11.75705 1674 ft 165 kts 263°
2026-05-04 04:26 48.33986 11.73991 2415 ft 165 kts 264°
2026-05-04 04:26 48.33785 11.72262 3014 ft 177 kts 248°
2026-05-04 04:27 48.32853 11.70936 3291 ft 203 kts 199°
2026-05-04 04:27 48.31384 11.70586 3541 ft 225 kts 184°
2026-05-04 04:27 48.29785 11.70559 4039 ft 234 kts 175°
2026-05-04 04:27 48.28229 11.71263 4765 ft 238 kts 152°
2026-05-04 04:28 48.26794 11.72717 5164 ft 261 kts 145°
2026-05-04 04:28 48.25255 11.74343 5705 ft 276 kts 146°
2026-05-04 04:28 48.23723 11.76129 6543 ft 281 kts 142°
2026-05-04 04:28 48.22232 11.78030 7402 ft 282 kts 141°
2026-05-04 04:29 48.20750 11.79980 8268 ft 285 kts 141°
2026-05-04 04:29 48.19261 11.81954 9133 ft 287 kts 141°
2026-05-04 04:29 48.17758 11.83941 9982 ft 289 kts 141°
2026-05-04 04:29 48.16227 11.85955 10546 ft 302 kts 141°
2026-05-04 04:30 48.14581 11.88101 10766 ft 326 kts 141°
2026-05-04 04:30 48.12820 11.90385 11129 ft 341 kts 141°
2026-05-04 04:30 48.11011 11.92734 11773 ft 347 kts 141°
2026-05-04 04:30 48.09174 11.95118 12480 ft 351 kts 142°
2026-05-04 04:31 48.07241 11.97360 13173 ft 354 kts 146°
2026-05-04 04:31 48.05244 11.99541 13855 ft 357 kts 147°
2026-05-04 04:31 48.03211 12.01693 14493 ft 360 kts 148°
2026-05-04 04:31 48.01151 12.03851 15108 ft 363 kts 147°
2026-05-04 04:32 47.99069 12.06039 15695 ft 368 kts 147°
2026-05-04 04:32 47.96971 12.08255 16284 ft 371 kts 147°
2026-05-04 04:32 47.94855 12.10502 16874 ft 375 kts 147°
2026-05-04 04:32 47.92720 12.12774 17459 ft 379 kts 147°
2026-05-04 04:33 47.90570 12.15072 18041 ft 382 kts 147°
2026-05-04 04:33 47.88406 12.17402 18582 ft 386 kts 146°
2026-05-04 04:33 47.86225 12.19758 19078 ft 389 kts 146°
2026-05-04 04:33 47.84025 12.22132 19576 ft 392 kts 146°
2026-05-04 04:34 47.81811 12.24510 20070 ft 394 kts 146°
2026-05-04 04:34 47.79576 12.26902 20563 ft 397 kts 146°
2026-05-04 04:34 47.77325 12.29311 21037 ft 400 kts 146°
2026-05-04 04:34 47.75061 12.31733 21537 ft 402 kts 146°
2026-05-04 04:35 47.72784 12.34163 22015 ft 405 kts 146°
2026-05-04 04:35 47.70487 12.36607 22473 ft 407 kts 146°
2026-05-04 04:35 47.68176 12.39065 22924 ft 410 kts 146°
2026-05-04 04:35 47.65850 12.41542 23357 ft 413 kts 146°
2026-05-04 04:36 47.63508 12.44037 23766 ft 416 kts 146°
2026-05-04 04:36 47.61149 12.46549 24108 ft 419 kts 146°
2026-05-04 04:36 47.58775 12.49072 24471 ft 421 kts 146°
2026-05-04 04:36 47.56383 12.51599 24838 ft 424 kts 146°
2026-05-04 04:37 47.49106 12.59257 25836 ft 432 kts 147°
2026-05-04 04:37 47.46647 12.61837 26144 ft 435 kts 146°
2026-05-04 04:38 47.44168 12.64432 26453 ft 438 kts 147°
2026-05-04 04:38 47.41675 12.67040 26778 ft 441 kts 147°
2026-05-04 04:38 47.39163 12.69669 27091 ft 444 kts 147°
2026-05-04 04:38 47.36641 12.72309 27421 ft 446 kts 147°
2026-05-04 04:39 47.34099 12.74961 27748 ft 449 kts 147°
2026-05-04 04:39 47.31541 12.77630 28048 ft 452 kts 147°
2026-05-04 04:39 47.28971 12.80311 28357 ft 454 kts 147°
2026-05-04 04:39 47.26387 12.83006 28647 ft 456 kts 147°
2026-05-04 04:40 47.23788 12.85716 28950 ft 459 kts 147°
2026-05-04 04:40 47.21174 12.88438 29231 ft 461 kts 147°
2026-05-04 04:40 47.18544 12.91167 29508 ft 464 kts 147°
2026-05-04 04:40 47.15901 12.93898 29742 ft 466 kts 147°
2026-05-04 04:41 47.13243 12.96642 30046 ft 468 kts 147°
2026-05-04 04:41 47.10610 12.99360 30291 ft 470 kts 147°
2026-05-04 04:41 47.07895 13.02164 30541 ft 472 kts 147°
2026-05-04 04:41 47.05250 13.04894 30880 ft 470 kts 147°
2026-05-04 04:42 47.02540 13.07688 31233 ft 469 kts 147°
2026-05-04 04:42 46.99906 13.10397 31561 ft 468 kts 147°
2026-05-04 04:42 46.97241 13.13130 31883 ft 468 kts 147°
2026-05-04 04:42 46.94579 13.15858 32239 ft 466 kts 147°
2026-05-04 04:43 46.91925 13.18576 32588 ft 465 kts 147°
2026-05-04 04:43 46.89278 13.21287 32939 ft 464 kts 147°
2026-05-04 04:43 46.86638 13.23984 33279 ft 462 kts 147°
2026-05-04 04:43 46.84005 13.26667 33634 ft 461 kts 147°
2026-05-04 04:44 46.81372 13.29347 33964 ft 460 kts 147°
2026-05-04 04:44 46.78750 13.32015 34270 ft 460 kts 147°
2026-05-04 04:44 46.76129 13.34678 34545 ft 459 kts 147°
2026-05-04 04:44 46.73511 13.37336 34828 ft 458 kts 147°
2026-05-04 04:45 46.70898 13.39988 35106 ft 457 kts 147°
2026-05-04 04:45 46.68290 13.42639 35367 ft 457 kts 147°
2026-05-04 04:45 46.65686 13.45279 35637 ft 456 kts 147°
2026-05-04 04:47 46.50047 13.60791 37006 ft 452 kts 150°
2026-05-04 04:47 46.47375 13.63194 37110 ft 452 kts 150°
2026-05-04 04:47 46.44694 13.65555 37119 ft 451 kts 150°
2026-05-04 04:48 46.39328 13.70287 37120 ft 451 kts 150°
2026-05-04 04:49 46.25980 13.82264 37125 ft 452 kts 150°
2026-05-04 04:49 46.20627 13.87052 37134 ft 453 kts 150°
2026-05-04 04:50 46.15269 13.91823 37139 ft 453 kts 150°
2026-05-04 04:50 46.09907 13.96593 37133 ft 453 kts 150°
2026-05-04 04:51 46.04539 14.01356 37124 ft 453 kts 150°
2026-05-04 04:51 45.99156 14.06104 37131 ft 454 kts 151°
2026-05-04 04:52 45.93767 14.10864 37129 ft 455 kts 150°
2026-05-04 04:52 45.88376 14.15629 37128 ft 455 kts 151°
2026-05-04 04:53 45.82977 14.20377 37134 ft 456 kts 151°
2026-05-04 04:53 45.77567 14.25117 37140 ft 456 kts 151°
2026-05-04 04:54 45.72155 14.29854 37150 ft 456 kts 151°
2026-05-04 04:54 45.66742 14.34584 37153 ft 456 kts 151°
2026-05-04 04:55 45.61324 14.39303 37140 ft 456 kts 151°
2026-05-04 04:55 45.55898 14.44013 37139 ft 457 kts 151°
2026-05-04 04:56 45.51381 14.47934 37138 ft 457 kts 151°
2026-05-04 04:56 45.45942 14.52642 37135 ft 457 kts 151°
2026-05-04 04:57 45.40496 14.57341 37122 ft 458 kts 151°
2026-05-04 04:57 45.35002 14.62076 37116 ft 459 kts 151°
2026-05-04 04:58 45.29532 14.66780 37116 ft 460 kts 151°
2026-05-04 04:58 45.24094 14.71444 37118 ft 460 kts 151°
2026-05-04 04:59 45.18613 14.76122 37113 ft 460 kts 152°
2026-05-04 04:59 45.13127 14.80803 37119 ft 460 kts 151°
2026-05-04 05:00 45.07636 14.85482 37120 ft 461 kts 151°
2026-05-04 05:01 44.99387 14.92491 37141 ft 461 kts 151°
2026-05-04 05:01 44.93882 14.97154 37140 ft 462 kts 152°
2026-05-04 05:02 44.88367 15.01820 37144 ft 462 kts 152°
2026-05-04 05:02 44.82844 15.06474 37149 ft 463 kts 152°
2026-05-04 05:03 44.77313 15.11126 37150 ft 463 kts 152°
2026-05-04 05:04 44.66242 15.20403 37144 ft 463 kts 152°
2026-05-04 05:04 44.60708 15.25033 37152 ft 463 kts 152°
2026-05-04 05:06 44.38499 15.43473 37140 ft 465 kts 152°
2026-05-04 05:07 44.32932 15.48084 37153 ft 465 kts 152°
2026-05-04 05:07 44.27356 15.52688 37133 ft 465 kts 152°
2026-05-04 05:09 44.02187 15.73306 37146 ft 467 kts 152°
2026-05-04 05:10 43.96566 15.77869 37139 ft 468 kts 152°
2026-05-04 05:10 43.90939 15.82441 37144 ft 469 kts 152°
2026-05-04 05:11 43.85302 15.87014 37136 ft 470 kts 152°
2026-05-04 05:11 43.79699 15.91556 37141 ft 470 kts 152°
2026-05-04 05:12 43.74045 15.96123 37148 ft 471 kts 152°
2026-05-04 05:12 43.68388 16.00681 37161 ft 471 kts 152°
2026-05-04 05:13 43.62722 16.05233 37143 ft 472 kts 151°
2026-05-04 05:13 43.57004 16.09821 37158 ft 473 kts 151°
2026-05-04 05:14 43.51353 16.14344 37163 ft 473 kts 152°
2026-05-04 05:14 43.45662 16.18891 37156 ft 473 kts 152°
2026-05-04 05:15 43.39962 16.23434 37158 ft 473 kts 152°
2026-05-04 05:15 43.34261 16.27964 37162 ft 474 kts 152°
2026-05-04 05:16 43.28553 16.32487 37157 ft 474 kts 152°
2026-05-04 05:16 43.22803 16.37037 37157 ft 474 kts 151°
2026-05-04 05:17 43.17078 16.41555 37140 ft 476 kts 151°
2026-05-04 05:17 43.11337 16.46075 37137 ft 476 kts 151°
2026-05-04 05:18 43.05585 16.50588 37141 ft 477 kts 151°
2026-05-04 05:18 42.99826 16.55109 37139 ft 477 kts 152°
2026-05-04 05:19 42.94064 16.59628 37141 ft 478 kts 152°
2026-05-04 05:19 42.88331 16.64111 37147 ft 478 kts 152°
2026-05-04 05:20 42.82550 16.68611 37149 ft 479 kts 152°
2026-05-04 05:20 42.76761 16.73104 37149 ft 479 kts 151°
2026-05-04 05:21 42.70962 16.77602 37137 ft 480 kts 151°
2026-05-04 05:21 42.65153 16.82101 37136 ft 481 kts 151°
2026-05-04 05:22 42.59377 16.86710 37137 ft 481 kts 150°
2026-05-04 05:22 42.53635 16.91400 37131 ft 482 kts 150°
2026-05-04 05:23 42.47883 16.96063 37136 ft 482 kts 150°
2026-05-04 05:23 42.42109 17.00697 37138 ft 482 kts 150°
2026-05-04 05:24 42.36330 17.05316 37162 ft 483 kts 150°
2026-05-04 05:24 42.30546 17.09938 37142 ft 484 kts 150°
2026-05-04 05:25 42.24749 17.14566 37135 ft 484 kts 150°
2026-05-04 05:25 42.18939 17.19193 37139 ft 485 kts 150°
2026-05-04 05:26 42.13120 17.23809 37142 ft 486 kts 150°
2026-05-04 05:26 42.07292 17.28425 37140 ft 486 kts 150°
2026-05-04 05:28 41.83890 17.46857 37154 ft 489 kts 150°
2026-05-04 05:29 41.78012 17.51464 37152 ft 489 kts 150°
2026-05-04 05:29 41.72137 17.56075 37154 ft 490 kts 150°
2026-05-04 05:31 41.48546 17.74432 37152 ft 491 kts 150°
2026-05-04 05:32 41.42628 17.79016 37168 ft 492 kts 150°
2026-05-04 05:33 41.33741 17.85854 37163 ft 492 kts 150°
2026-05-04 05:33 41.27810 17.90432 37162 ft 492 kts 150°
2026-05-04 05:34 41.21888 17.95000 37159 ft 492 kts 150°
2026-05-04 05:34 41.15952 17.99546 37153 ft 493 kts 150°
2026-05-04 05:35 41.10011 18.04087 37146 ft 493 kts 150°
2026-05-04 05:35 41.04098 18.08598 37147 ft 494 kts 150°
2026-05-04 05:36 40.98146 18.13141 37148 ft 494 kts 150°
2026-05-04 05:36 40.93152 18.16939 37148 ft 494 kts 151°
2026-05-04 05:37 40.86210 18.22194 37148 ft 495 kts 151°
2026-05-04 05:37 40.80236 18.26711 37150 ft 495 kts 151°
2026-05-04 05:38 40.72243 18.32758 37148 ft 495 kts 151°
2026-05-04 05:38 40.66261 18.37268 37133 ft 495 kts 151°
2026-05-04 05:39 40.57281 18.44013 37163 ft 496 kts 151°
2026-05-04 05:40 40.48286 18.50754 37151 ft 496 kts 151°
2026-05-04 05:40 40.42281 18.55242 37140 ft 497 kts 151°
2026-05-04 05:41 40.36262 18.59722 37144 ft 497 kts 151°
2026-05-04 05:41 40.30285 18.64167 37148 ft 498 kts 151°
2026-05-04 05:42 40.24219 18.68672 37150 ft 498 kts 151°
2026-05-04 05:42 40.18225 18.73117 37147 ft 499 kts 151°
2026-05-04 05:43 40.12187 18.77581 37149 ft 499 kts 152°
2026-05-04 05:45 39.87939 18.95407 37164 ft 501 kts 152°
2026-05-04 05:47 39.67934 19.20241 37178 ft 501 kts 130°
2026-05-04 05:47 39.63302 19.27015 37165 ft 502 kts 130°
2026-05-04 05:48 39.58673 19.33792 37162 ft 502 kts 130°
2026-05-04 05:48 39.54046 19.40568 37159 ft 502 kts 130°
2026-05-04 05:49 39.49409 19.47329 37184 ft 502 kts 130°
2026-05-04 05:49 39.44762 19.54075 37152 ft 502 kts 130°
2026-05-04 05:51 39.26127 19.81006 37184 ft 503 kts 130°
2026-05-04 05:52 39.21457 19.87729 37174 ft 503 kts 130°
2026-05-04 05:52 39.16772 19.94452 37167 ft 504 kts 130°
2026-05-04 05:54 38.97963 20.21283 37182 ft 506 kts 130°
2026-05-04 05:55 38.93290 20.28050 37177 ft 506 kts 129°
2026-05-04 05:55 38.88749 20.34952 37183 ft 506 kts 128°
2026-05-04 05:56 38.84224 20.41882 37187 ft 506 kts 128°
2026-05-04 05:56 38.79663 20.48770 37219 ft 507 kts 128°
2026-05-04 05:57 38.75066 20.55633 37202 ft 508 kts 129°
2026-05-04 05:57 38.70459 20.62492 37205 ft 508 kts 129°
2026-05-04 05:58 38.65854 20.69353 37201 ft 508 kts 129°
2026-05-04 05:58 38.61251 20.76222 37203 ft 508 kts 128°
2026-05-04 05:59 38.56645 20.83077 37217 ft 509 kts 129°
2026-05-04 05:59 38.52017 20.89936 37196 ft 510 kts 129°
2026-05-04 06:00 38.47379 20.96789 37194 ft 511 kts 129°
2026-05-04 06:00 38.42729 21.03646 37198 ft 511 kts 129°
2026-05-04 06:01 38.38072 21.10507 37202 ft 512 kts 129°
2026-05-04 06:03 38.21726 21.34455 36196 ft 514 kts 129°
2026-05-04 06:03 38.19371 21.37884 35946 ft 515 kts 129°
2026-05-04 06:05 38.01412 21.60596 32373 ft 532 kts 135°
2026-05-04 06:05 37.96086 21.67004 31112 ft 523 kts 134°
2026-05-04 06:05 37.93509 21.70162 30479 ft 520 kts 134°
2026-05-04 06:06 37.90921 21.73341 29767 ft 516 kts 134°
2026-05-04 06:06 37.88351 21.76483 29139 ft 510 kts 134°
2026-05-04 06:06 37.85805 21.79579 28526 ft 505 kts 134°
2026-05-04 06:06 37.83277 21.82637 27883 ft 501 kts 134°
2026-05-04 06:07 37.80763 21.85664 27269 ft 496 kts 135°
2026-05-04 06:07 37.78273 21.88653 26655 ft 492 kts 135°
2026-05-04 06:07 37.75806 21.91617 26064 ft 487 kts 134°
2026-05-04 06:07 37.73360 21.94557 25487 ft 483 kts 134°
2026-05-04 06:08 37.70936 21.97475 24913 ft 479 kts 134°
2026-05-04 06:08 37.68534 22.00370 24337 ft 475 kts 134°
2026-05-04 06:08 37.66154 22.03233 23821 ft 470 kts 134°
2026-05-04 06:08 37.63797 22.06065 23242 ft 466 kts 134°
2026-05-04 06:09 37.61463 22.08863 22747 ft 459 kts 134°
2026-05-04 06:09 37.59164 22.11617 22247 ft 454 kts 134°
2026-05-04 06:11 37.43094 22.29506 18624 ft 436 kts 160°
2026-05-04 06:11 37.40156 22.30295 18031 ft 430 kts 181°
2026-05-04 06:13 37.23850 22.18505 14334 ft 376 kts 222°
2026-05-04 06:14 37.11428 22.06875 11106 ft 370 kts 221°
2026-05-04 06:14 37.09344 22.04973 10545 ft 371 kts 216°
2026-05-04 06:15 37.07008 22.03663 10296 ft 365 kts 198°
2026-05-04 06:15 37.04540 22.03201 10173 ft 354 kts 181°
2026-05-04 06:15 37.02138 22.03528 10044 ft 342 kts 168°
2026-05-04 06:15 36.99845 22.04094 9905 ft 330 kts 168°
2026-05-04 06:16 36.97639 22.04641 9438 ft 320 kts 168°
2026-05-04 06:16 36.95474 22.05180 8798 ft 315 kts 168°
2026-05-04 06:16 36.93349 22.05699 8259 ft 307 kts 169°
2026-05-04 06:16 36.91260 22.06189 7537 ft 306 kts 170°
2026-05-04 06:17 36.89158 22.06672 6774 ft 307 kts 171°
2026-05-04 06:17 36.87081 22.07147 6263 ft 297 kts 171°
2026-05-04 06:17 36.85070 22.07411 5704 ft 287 kts 184°
2026-05-04 06:17 36.83140 22.07027 5111 ft 277 kts 201°
2026-05-04 06:18 36.81440 22.06069 4785 ft 261 kts 216°
2026-05-04 06:18 36.79958 22.04830 4534 ft 253 kts 218°
2026-05-04 06:18 36.78528 22.03629 4397 ft 242 kts 218°
2026-05-04 06:20 36.74992 22.09408 3628 ft 205 kts 15°
2026-05-04 06:20 36.76350 22.09614 3550 ft 192 kts 350°
2026-05-04 06:21 36.81276 22.08481 3266 ft 177 kts 347°
2026-05-04 06:21 36.82488 22.08200 3189 ft 177 kts 347°
2026-05-04 06:22 36.83687 22.07922 3110 ft 178 kts 347°
2026-05-04 06:22 36.84906 22.07639 3027 ft 178 kts 347°
2026-05-04 06:25 37.00173 22.04093 1168 ft 137 kts 348°
2026-05-04 06:25 37.01098 22.03878 978 ft 134 kts 348°
2026-05-04 06:26 37.02011 22.03665 797 ft 133 kts 348°
2026-05-04 06:26 37.02918 22.03451 631 ft 132 kts 348°
2026-05-04 06:26 37.03820 22.03231 432 ft 132 kts 348°
2026-05-04 06:26 37.04724 22.03029 249 ft 132 kts 349°
2026-05-04 06:27 37.07192 22.02497 32 ft 14 kts 65°
2026-05-04 06:28 37.07169 22.02586 34 ft 10 kts 148°
2026-05-04 06:28 37.07076 22.02612 34 ft 20 kts 169°
2026-05-04 06:28 37.06930 22.02646 33 ft 21 kts 169°
2026-05-04 06:28 37.06784 22.02680 34 ft 22 kts 169°
2026-05-04 06:29 37.06629 22.02716 32 ft 23 kts 169°
2026-05-04 06:29 37.06465 22.02753 34 ft 25 kts 169°
2026-05-04 06:29 37.06289 22.02795 32 ft 27 kts 169°
2026-05-04 06:29 37.06098 22.02840 34 ft 29 kts 169°
2026-05-04 06:30 37.05902 22.02885 32 ft 28 kts 169°
2026-05-04 06:30 37.05714 22.02928 33 ft 26 kts 169°
2026-05-04 06:30 37.05557 22.02969 33 ft 17 kts 147°
2026-05-04 06:30 37.05531 22.03084 35 ft 13 kts 105°
2026-05-04 06:31 37.05507 22.03186 35 ft 12 kts 109°
2026-05-04 06:31 37.05493 22.03277 35 ft 10 kts 70°
2026-05-04 06:31 37.05548 22.03301 35 ft 8 kts 22°
2026-05-04 06:31 37.05540 22.03330 35 ft 3 kts 134°
2026-05-04 06:32 37.05533 22.03344 35 ft 0 kts 121°